Regional Weather Roundup
Issued by NWS

Home | Current Version | Previous Version | Text Only | Print | Product List | Glossary Off
Versions: 1 2 3 4 5 6 7 8 9 10 11 12 13 14 15 16 17 18 19 20 21 22 23 24 25 26 27 28 29 30 31 32 33 34 35 36 37 38 39 40 41 42 43 44 45 46 47 48 49 50

000
ASUS43 KMKX 300803
RWRWI

WISCONSIN REGIONAL WEATHER ROUNDUP
NATIONAL WEATHER SERVICE MILWAUKEE/SULLIVAN WI
300 AM CDT SAT MAY 30 2015

NOTE: "FAIR" INDICATES FEW OR NO CLOUDS BELOW 12,000 FEET WITH NO
SIGNIFICANT WEATHER AND/OR OBSTRUCTIONS TO VISIBILITY.

WIZ001-002-006>008-014>016-023>028-300900-
NORTHWEST WISCONSIN

CITY           SKY/WX    TMP DP  RH WIND       PRES   REMARKS
SUPERIOR ARPT  PTCLDY    44  39  82 N6        30.13R
ASHLAND        CLOUDY    50  43  77 N9        30.11R
HAYWARD        CLOUDY    49  43  80 N8        30.09S
SIREN          CLOUDY    48  42  80 N9        30.11R
CUMBERLAND     CLOUDY    48  45  87 N10G17    30.08R
RICE LAKE      CLOUDY    50  45  81 N13       30.08R
CHETEK         CLOUDY    51  48  90 N12G17    30.06R
LADYSMITH      CLOUDY    51  48  90 N10G17    30.06R
EAU CLAIRE     NOT AVBL
MENOMONIE      DRIZZLE   52  50  92 N14       30.04S
NEW RICHMOND   MOCLDY    50  47  88 N12       30.09R
OSCEOLA        PTCLDY    49  47  91 N7G16     30.13R
$$

WIZ003>005-009-010-017-018-300900-
NORTH CENTRAL WISCONSIN

CITY           SKY/WX    TMP DP  RH WIND       PRES   REMARKS
MANITOWISH WTR CLOUDY    47  47 100 N8        30.04S
ARBOR VITAE    CLOUDY    52  50  94 N10       30.02S
WOODRUFF       CLOUDY    52  50  94 N10       30.02S
RHINELANDER    LGT RAIN  53  50  89 N6        30.01S
EAGLE RIVER    CLOUDY    52  51  98 N8        30.01S
LAND O LAKES   CLOUDY    52  50  92 N6        30.02F
PHILLIPS       CLOUDY    48  46  93 N10G20    30.04R
TOMAHAWK       DRIZZLE   51  50  94 N7        30.02R
MEDFORD        DRIZZLE   52  50  94 N16G23    30.00S
MERRILL        RAIN      56  55  99 N7        30.00R
$$

WIZ029-030-035-036-043>047-300900-
CENTRAL WISCONSIN

CITY           SKY/WX    TMP DP  RH WIND       PRES   REMARKS
WAUSAU         LGT RAIN  57  55  93 VRB7      29.95S
MOSINEE        LGT RAIN  55  55 100 N8        29.97S
MARSHFIELD     LGT RAIN  58  54  86 NE13G22   29.96S
STEVENS POINT  RAIN      58  57  97 N10       29.95R
WAUPACA        HVY RAIN  64  64  98 CALM      29.92S
WAUTOMA        LGT RAIN  64  64 100 CALM      29.91S FOG
WISC RAPIDS    HVY RAIN  60  58  92 N16G23    29.95R FOG
CAMP DOUGLAS   LGT RAIN  64  64 100 NW8       29.91R
$$

WIZ011>013-019>022-031-037>040-048>050-300900-
NORTHEAST WISCONSIN

CITY           SKY/WX    TMP DP  RH WIND       PRES   REMARKS
ANTIGO         DRIZZLE   55  55  99 N9        29.98R
SHAWANO        LGT RAIN  60  58  94 N17G25    29.95R
OCONTO         CLOUDY    57  57 100 N9        29.94R
STURGEON BAY   CLOUDY    55  52  88 N16       29.96R
GREEN BAY      LGT RAIN  61  59  93 NE23G29   29.93R FOG
MANITOWOC      NOT AVBL
APPLETON       RAIN      63  63 100 NE8       29.92S
CLINTONVILLE   RAIN      61  61 100 N7        29.92S
OSHKOSH        CLOUDY    65  63  93 CALM      29.90S
$$

WIZ032>034-041-042-053>061-300900-
SOUTHWEST WISCONSIN

CITY           SKY/WX    TMP DP  RH WIND       PRES   REMARKS
LA CROSSE      LGT RAIN  62  58  86 N12       29.94R
SPARTA         RAIN      60  58  96 N14G20    29.94R
VIROQUA        CLOUDY    63  63 100 E6        29.92S
BOSCOBEL       LGT RAIN  67  65  93 CALM      29.89F FOG
PRAIRIE DU CHI CLOUDY    66  64  91 CALM      29.89F
PLATTEVILLE    CLOUDY    65  64  96 SW14      29.93S
$$

WIZ056-057-062-063-064-067-068-300900-
SOUTH CENTRAL WISCONSIN

CITY           SKY/WX    TMP DP  RH WIND       PRES   REMARKS
REEDSBURG      CLOUDY    64  64 100 CALM      29.90S
BARABOO/DELLS  RAIN      64  62  94 SE6       29.90F
LONE ROCK      CLOUDY    67  65  93 CALM      29.91S
MINERAL POINT  RAIN      68  64  88 SW8       29.92S
MADISON        CLOUDY    66  63  90 SE3       29.91S
MIDDLETON      CLOUDY    67  66  97 SE3       29.91F
WATERTOWN      DRIZZLE  N/A N/A N/A CALM      29.91S
MONROE         CLOUDY    68  61  77 SW13      29.92S
JANESVILLE     CLOUDY    68  64  88 W7        29.91F
$$

WIZ051-052-058>065-066-070>072-300900-
SOUTHEAST WISCONSIN

CITY           SKY/WX    TMP DP  RH WIND       PRES   REMARKS
MILWAUKEE      CLOUDY    66  63  90 CALM      29.91F
WAUKESHA       LGT RAIN  63  61  94 CALM      29.93F
MILWAUKEE/TIMM DRIZZLE   64  61  88 S3        29.92S
RACINE         CLOUDY    67  64  90 W3        29.92F
BURLINGTON     CLOUDY    64  62  94 S5        29.92F
KENOSHA        CLOUDY    66  63  90 SW6       29.92F
FOND DU LAC    LGT RAIN  64  63  96 S3        29.90F FOG
SHEBOYGAN      CLOUDY    64  62  93 NE3       29.90F
WEST BEND      CLOUDY    63  61  94 CALM      29.91S
JUNEAU         RAIN      63  63  98 CALM      29.92S
$$

LSZ147-162-300900-
LAKE SUPERIOR

STATION/POSITION TIME  TEMP    WIND        PRES    WAVE
                       AIR SEA DIR/SP/G            HT/PER
                 (UTC) (F)     (DEG/KT/KT) (MB)    (FT/S)
W MID LAKE BUOY  0650   42 37  310/  8/  8   N/A     1
DEVILS ISLAND    0700   46     320/ 10/ 11   N/A
PORT WING        0700   46     280/  4/  5   N/A
SAXON HARBOR     0700   51     340/  5/  7   N/A
$$

LMZ867-665-643>646-300900-
LAKE MICHIGAN

STATION/POSITION TIME  TEMP    WIND        PRES    WAVE
                       AIR SEA DIR/SP/G            HT/PER
                 (UTC) (F)     (DEG/KT/KT) (MB)    (FT/S)
CHAMBERS ISLAND  0600   55     350/ 11/ 14   N/A
N MID LAKE BUOY  0650   43 37  310/  8/ 10   N/A     1
NORTHPORT PIER   0700   54     340/ 18/ 20   N/A
SISTER BAY       0718   53      10/ 17/ 24   N/A
ALGOMA LAKESHORE 0738           60/  6/  7   N/A
KEWAUNEE LAKESHO 0700   61      30/  6/ 11   N/A
SHEBOYGAN LAKESH 0700   64      CALM  /  1   N/A
PORT WASHINGTON  0700   64     100/  1/  4   N/A
ATWATER BUOY     0700   57      CALM  /  2   N/A
MILWAUKEE LAKESH 0700   68     300/  1/  2   N/A
S MID LAKE BUOY  0650   46 38  200/ 10/ 10   N/A     0
KENOSHA   LAKESH 0700   72     260/ 12/ 17   N/A
$$

TC  - TEMPERATURE IN CELSIUS
VSB - VISIBILITY IN STATUTE MILES
WCI - WIND CHILL INDEX
HX  - HEAT INDEX




USA.gov is the U.S. government's official web portal to all federal, state and local government web resources and services.